EN

Hourly Weather Barrancas

Today, 26 January, Tuesday

Time Temperature Precipitation Wind Pressure Humidity
00:00 +23°C° 0 mm 1 mps 758 mmHg 95%
01:00 +23°C° 0 mm 1 mps 758 mmHg 97%
02:00 +23°C° 0 mm 1 mps 758 mmHg 98%
03:00 +23°C° 0 mm 1 mps 758 mmHg 98%
04:00 +22°C° 0 mm 1 mps 758 mmHg 98%
05:00 +22°C° 0 mm 1 mps 758 mmHg 98%
06:00 +23°C° 0 mm 1 mps 758 mmHg 95%
07:00 +24°C° 0 mm 1 mps 759 mmHg 92%
08:00 +25°C° 0 mm 1 mps 759 mmHg 88%
09:00 +27°C° 0 mm 2 mps 759 mmHg 79%
10:00 +29°C° 0 mm 2 mps 759 mmHg 70%
11:00 +31°C° 0 mm 3 mps 760 mmHg 60%
12:00 +33°C° 0.1 mm 3 mps 759 mmHg 58%
13:00 +34°C° 0.1 mm 3 mps 758 mmHg 55%
14:00 +34°C° 0.1 mm 3 mps 757 mmHg 52%
15:00 +33°C° 0.1 mm 3 mps 757 mmHg 56%
16:00 +33°C° 0.1 mm 3 mps 756 mmHg 61%
17:00 +31°C° 0.1 mm 3 mps 756 mmHg 65%
18:00 +29°C° 0.1 mm 2 mps 756 mmHg 73%
19:00 +27°C° 0.1 mm 2 mps 757 mmHg 81%
20:00 +25°C° 0.1 mm 2 mps 757 mmHg 89%
21:00 +25°C° 0 mm 2 mps 758 mmHg 92%
22:00 +24°C° 0 mm 1 mps 758 mmHg 94%
23:00 +24°C° 0 mm 1 mps 758 mmHg 97%

Tomorrow, 27 January, Wednesday

Time Temperature Precipitation Wind Pressure Humidity
00:00 +24°C° 0.1 mm 1 mps 758 mmHg 97%
01:00 +23°C° 0.1 mm 1 mps 758 mmHg 98%
02:00 +23°C° 0.1 mm 1 mps 758 mmHg 98%
03:00 +23°C° 0.1 mm 1 mps 758 mmHg 98%
04:00 +23°C° 0.1 mm 1 mps 758 mmHg 98%
05:00 +23°C° 0.1 mm 1 mps 758 mmHg 98%
06:00 +24°C° 0 mm 1 mps 758 mmHg 95%
07:00 +24°C° 0 mm 2 mps 759 mmHg 92%
08:00 +25°C° 0 mm 2 mps 759 mmHg 90%
09:00 +27°C° 0 mm 2 mps 759 mmHg 79%
10:00 +29°C° 0 mm 3 mps 760 mmHg 68%
11:00 +31°C° 0 mm 3 mps 760 mmHg 58%
12:00 +31°C° 0.1 mm 3 mps 759 mmHg 57%
13:00 +33°C° 0.1 mm 3 mps 758 mmHg 57%
14:00 +33°C° 0.1 mm 3 mps 757 mmHg 56%
15:00 +31°C° 0.1 mm 3 mps 757 mmHg 59%
16:00 +31°C° 0.1 mm 3 mps 756 mmHg 63%
17:00 +30°C° 0.1 mm 3 mps 756 mmHg 66%
18:00 +28°C° 0 mm 2 mps 756 mmHg 72%
19:00 +27°C° 0 mm 2 mps 757 mmHg 78%
20:00 +25°C° 0 mm 2 mps 757 mmHg 84%
21:00 +25°C° 0 mm 2 mps 758 mmHg 87%
22:00 +24°C° 0 mm 1 mps 758 mmHg 90%
23:00 +23°C° 0 mm 1 mps 758 mmHg 93%

Day after tomorrow, 28 January, Thursday

Time Temperature Precipitation Wind Pressure Humidity
00:00 +23°C° 0 mm 1 mps 758 mmHg 95%
01:00 +23°C° 0 mm 1 mps 758 mmHg 96%
02:00 +22°C° 0 mm 1 mps 758 mmHg 98%
03:00 +22°C° 0 mm 1 mps 757 mmHg 98%
04:00 +22°C° 0 mm 1 mps 757 mmHg 98%
05:00 +20°C° 0 mm 0 mps 757 mmHg 98%
06:00 +23°C° 0 mm 1 mps 758 mmHg 94%
07:00 +24°C° 0 mm 1 mps 758 mmHg 90%
08:00 +25°C° 0 mm 1 mps 759 mmHg 86%
09:00 +27°C° 0 mm 1 mps 759 mmHg 76%
10:00 +29°C° 0 mm 2 mps 759 mmHg 67%
11:00 +31°C° 0 mm 2 mps 759 mmHg 57%
12:00 +32°C° 0.1 mm 2 mps 758 mmHg 55%
13:00 +34°C° 0.1 mm 2 mps 757 mmHg 53%
14:00 +34°C° 0.1 mm 3 mps 756 mmHg 51%
15:00 +33°C° 0.2 mm 3 mps 756 mmHg 59%
16:00 +31°C° 0.2 mm 3 mps 756 mmHg 66%
17:00 +29°C° 0.2 mm 3 mps 755 mmHg 73%
18:00 +28°C° 0.1 mm 2 mps 756 mmHg 79%
19:00 +26°C° 0.1 mm 2 mps 756 mmHg 85%
20:00 +25°C° 0.1 mm 1 mps 757 mmHg 91%
21:00 +24°C° 0 mm 1 mps 757 mmHg 93%
22:00 +24°C° 0 mm 1 mps 757 mmHg 95%
23:00 +23°C° 0 mm 1 mps 757 mmHg 97%

29 January, Friday

Time Temperature Precipitation Wind Pressure Humidity
00:00 +23°C° 0 mm 1 mps 757 mmHg 97%
01:00 +23°C° 0 mm 1 mps 757 mmHg 98%
02:00 +22°C° 0 mm 1 mps 757 mmHg 98%
03:00 +22°C° 0 mm 1 mps 757 mmHg 98%
04:00 +20°C° 0 mm 0 mps 757 mmHg 98%
05:00 +20°C° 0 mm 0 mps 757 mmHg 98%
06:00 +21°C° 0 mm 0 mps 757 mmHg 95%
07:00 +24°C° 0 mm 1 mps 758 mmHg 92%
08:00 +25°C° 0 mm 1 mps 758 mmHg 90%
09:00 +27°C° 0 mm 1 mps 758 mmHg 80%
10:00 +29°C° 0 mm 2 mps 758 mmHg 70%
11:00 +31°C° 0 mm 2 mps 758 mmHg 60%
12:00 +32°C° 0 mm 2 mps 758 mmHg 57%
13:00 +34°C° 0 mm 2 mps 757 mmHg 54%
14:00 +34°C° 0 mm 2 mps 756 mmHg 50%
15:00 +32°C° 0.1 mm 2 mps 756 mmHg 56%
16:00 +32°C° 0.1 mm 2 mps 755 mmHg 61%
17:00 +31°C° 0.1 mm 2 mps 755 mmHg 67%
18:00 +29°C° 0.1 mm 2 mps 755 mmHg 75%
19:00 +27°C° 0.1 mm 2 mps 756 mmHg 83%
20:00 +25°C° 0.1 mm 2 mps 756 mmHg 91%
21:00 +25°C° 0 mm 2 mps 756 mmHg 93%
22:00 +24°C° 0 mm 2 mps 757 mmHg 94%
23:00 +23°C° 0 mm 1 mps 757 mmHg 96%

30 January, Saturday

Time Temperature Precipitation Wind Pressure Humidity
00:00 +23°C° 0 mm 1 mps 757 mmHg 97%
01:00 +23°C° 0 mm 1 mps 757 mmHg 98%
02:00 +22°C° 0 mm 1 mps 757 mmHg 98%
03:00 +22°C° 0 mm 1 mps 757 mmHg 98%
04:00 +20°C° 0 mm 0 mps 757 mmHg 98%
05:00 +20°C° 0 mm 0 mps 757 mmHg 98%
06:00 +21°C° 0.1 mm 0 mps 758 mmHg 97%
07:00 +21°C° 0.1 mm 0 mps 758 mmHg 96%
08:00 +22°C° 0.1 mm 0 mps 759 mmHg 95%
09:00 +26°C° 0.3 mm 1 mps 759 mmHg 87%
10:00 +28°C° 0.3 mm 2 mps 759 mmHg 78%
11:00 +30°C° 0.3 mm 2 mps 759 mmHg 70%
12:00 +31°C° 0.1 mm 3 mps 758 mmHg 66%
13:00 +33°C° 0.1 mm 3 mps 757 mmHg 62%
14:00 +33°C° 0.1 mm 4 mps 757 mmHg 58%
15:00 +33°C° 0 mm 3 mps 756 mmHg 61%
16:00 +31°C° 0 mm 3 mps 756 mmHg 63%
17:00 +30°C° 0 mm 3 mps 756 mmHg 66%
18:00 +29°C° 0.3 mm 3 mps 756 mmHg 75%
19:00 +27°C° 0.3 mm 2 mps 757 mmHg 84%
20:00 +25°C° 0.3 mm 2 mps 757 mmHg 93%
21:00 +25°C° 0 mm 2 mps 758 mmHg 94%
22:00 +24°C° 0 mm 2 mps 758 mmHg 96%
23:00 +24°C° 0 mm 1 mps 758 mmHg 97%

31 January, Sunday

Time Temperature Precipitation Wind Pressure Humidity
00:00 +24°C° 0 mm 1 mps 758 mmHg 97%
01:00 +24°C° 0 mm 1 mps 758 mmHg 98%
02:00 +23°C° 0 mm 1 mps 757 mmHg 98%
03:00 +23°C° 0 mm 1 mps 757 mmHg 98%
04:00 +23°C° 0 mm 1 mps 758 mmHg 98%
05:00 +23°C° 0 mm 1 mps 758 mmHg 98%
06:00 +24°C° 0 mm 1 mps 758 mmHg 96%
07:00 +25°C° 0 mm 1 mps 758 mmHg 94%
08:00 +25°C° 0 mm 1 mps 759 mmHg 91%
09:00 +27°C° 0.2 mm 2 mps 759 mmHg 84%
10:00 +29°C° 0.2 mm 2 mps 759 mmHg 77%
11:00 +31°C° 0.2 mm 3 mps 759 mmHg 69%
12:00 +30°C° 0.8 mm 3 mps 758 mmHg 70%
13:00 +30°C° 0.8 mm 3 mps 757 mmHg 72%
14:00 +30°C° 0.8 mm 4 mps 756 mmHg 73%
15:00 +30°C° 0.5 mm 3 mps 756 mmHg 75%
16:00 +29°C° 0.5 mm 3 mps 756 mmHg 77%
17:00 +29°C° 0.5 mm 3 mps 755 mmHg 80%
18:00 +27°C° 0.1 mm 2 mps 756 mmHg 84%
19:00 +26°C° 0.1 mm 2 mps 756 mmHg 88%
20:00 +25°C° 0.1 mm 2 mps 757 mmHg 92%
21:00 +25°C° 0 mm 2 mps 757 mmHg 94%
22:00 +24°C° 0 mm 2 mps 758 mmHg 95%
23:00 +24°C° 0 mm 1 mps 758 mmHg 97%
Show more

We Need Your Consent

Meteoprog and our Service Providers may store and access personal data such as cookies, device identifiers or other similar technologies on your device and process such data to personalise content and ads, as well as provide social media features and to analyse the traffic.

  • Store and/or access information on your device

    Cookies, device identifiers or other information can be stored or accessed on your device for the purposes indicated above.

  • Personalised ads and content, ad and content measurement, audience insights, and products development

    Ads and content can be personalised based on a profile. More data can be added to better personalise ads and content. Ad and content performance can be measured. Insights about the audience who saw the ads and content can be derived. Such data can be used to develop or improve user’s experience, systems and software.

By clicking ‘I Agree’ you will allow the use of indicated cookies, device identifiers, web beacons or other similar technologies. Your settings can be changed in the browser on your device.

For certain purposes, legitimate interests may be relied on, rather than consent. You can read more about this in our Privacy and Cookie Policy.